Погода в Воронцове

Россия / Тверская область     56°56′26″N   37°56′42″E
темп.,
°C
ветер,
м/с
пор.,
м/с
влажн.,
%
обл.,
%
осадки,
мм/ч
давл.,
гПа
погр.,
м
26 февраля, пт
пт2600:00+1зюз36100100 0.2 1011171
03:00+1юз37100100 1.4 1009196
06:00+2зюз512100100 1.7 1006298
09:00+2зюз513100100 3.6 1002427
12:00+3зюз616100100 0.9 1000450
15:00+3з7169996 1.4 999692
18:00+1з7168884 0.0 998792
21:00+1зсз8159791 0.8 998885
27 февраля, сб
сб2700:00+1зсз71497100 0.3 998727
03:00−4с101397100 1.8 1000574
06:00−9ссз61289100 0.5 1002599
09:00−11ссз51090100 0.5 1005444
12:00−10ссз588973 0.0 1007438
15:00−8ссз588981 0.0 1010468
18:00−10ссз379484 0.0 1011184
21:00−11с389483 0.0 1014271
28 февраля, вс
вс2800:00−12с239678 0.0 101545
03:00−12ссз239676 0.1 101633
06:00−11ссз259679 0.1 1016194
09:00−10с239483 0.3 1017205
12:00−7ссз249092 0.1 1017370
15:00−4ссз359196 0.1 1018447
18:00−6с239696 0.1 101978
21:00−6сз119491 0.1 102121
1 марта, пн
пн100:00−7зсз119798 0.1 102123
03:00−8зюз119699 0.1 102321
06:00−9юз1196100 0.0 102321
09:00−8ююз229672 0.0 102454
12:00−3юз23887 0.0 1025340
15:00−1юз468923 0.0 1024489
18:00−1зюз4109338 0.0 1023481
21:00−1зюз5109369 0.0 1021448
2 марта, вт
вт200:00+1з61393100 0.0 1019567
03:00+1з61293100 0.0 1017521
06:000зсз61297100 0.1 1015615
09:00+1сз61298100 0.9 1014731
12:00+1сз7128977 0.1 10151049
15:00+1сз7128589 0.2 10151010
18:000сз71386100 0.1 1016919
21:000ссз61286100 0.1 1017885